Weather in Novopokrovka

Russia / Republic of Crimea     45°25′18″N   34°26′53″E
temp.,
°C
wind,
m/s
gust,
m/s
humid.,
%
clouds,
%
prec.,
mm/h
press.,
hPa
HPBL,
m
25 february, thu
thu2500:00−3e237036 0.0 1037113
03:00−2ene126919 0.0 103626
06:00−2e016862 0.0 103621
09:00−1sse236162 0.0 1035179
12:00+4w114655 0.0 1035413
15:00+5wnw245465 0.0 1034470
18:00+3w2369100 0.0 103240
21:00+2wsw3784100 0.0 1032200
26 february, fri
fri2600:00+3wsw5989100 0.0 1032266
03:00+4wsw599499 0.0 1031277
06:00+4wsw4995100 0.0 1029240
09:00+5wsw4894100 0.0 1030271
12:00+10wsw577585 0.0 1029654
15:00+12wsw676984 0.0 1027905
18:00+9sw597880 0.0 1026366
21:00+6sw5119140 0.0 1025303
27 february, sat
sat2700:00+6wsw613920 0.0 1023347
03:00+6wsw714920 0.0 1022405
06:00+6wsw7149329 0.0 1020431
09:00+7wsw7138744 0.0 1020503
12:00+10wsw797473 0.0 1019814
15:00+10wsw697586 0.0 1018836
18:00+9wnw4785100 0.1 1016476
21:00+7nnw5793100 2.9 1017484
28 february, sun
sun2800:00+6nnw5884100 2.0 1017735
03:00+5nw4876100 2.8 1017546
06:00+4wnw5980100 0.1 1017580
09:00+4nw587499 0.1 1018992
12:00+5nw5769100 0.3 10191008
15:00+5nw5666100 0.3 1020941
18:00+4nw577299 0.3 1021707
21:00+3nw488699 0.4 1023453
1 march, mon
mon100:00+1nnw478893 0.0 1025319
03:00+1nnw469488 0.0 1026404
06:00+1nnw459499 0.0 1027323
09:00+1nnw3495100 0.1 1029279
12:00+3nnw457798 0.2 1030641
15:00+3n446597 0.3 1030810
18:00+2nnw3465100 0.0 1031821
21:00+2nnw2579100 0.1 1033419